Probability
0 0 0 0 0 0 0 0 0 0 0 0 0 0 0 0 0 0 0 0 0 1 2 2 2 1 0 0 0 0 0 0 0 0 0 0 0 0 0 0 1 0 0
0 0 0 0 0 0 0 0 0 0 0 0 0 0 0 0 0 0 0 0 0 0 1 1 1 0 0 0 0 0 0 0 0 0 0 0 0 0 0 0 1 0 0
0 0 0 0 0 0 0 0 0 0 0 0 0 0 0 0 0 0 0 0 0 0 0 0 0 0 0 0 0 0 0 0 0 0 0 0 0 0 0 0 0 0 0
0 0 0 0 0 0 0 0 0 0 0 0 0 0 0 0 0 0 0 0 0 0 0 0 0 0 0 0 0 0 0 0 0 0 0 0 1 0 0 0 0 0 0
0 0 0 0 0 0 0 0 0 0 0 0 0 0 0 0 0 0 0 0 0 0 0 0 0 0 0 1 1 0 0 0 0 0 0 0 0 0 0 0 0 0 0
0 0 0 0 0 0 0 0 0 0 0 0 0 0 0 0 0 0 0 0 0 0 0 0 0 0 0 1 2 1 0 0 0 0 0 0 0 0 0 0 0 0 0
0 0 0 0 0 0 0 0 0 0 0 0 0 0 0 0 0 0 0 0 0 0 0 0 0 0 0 1 2 2 1 0 0 0 0 0 0 0 0 0 0 0 0
0 0 0 0 0 0 0 0 0 0 0 0 0 0 0 0 0 0 0 0 0 0 0 0 0 0 0 0 1 2 2 1 0 0 0 0 1 1 0 0 0 0 0
0 0 0 0 0 0 0 0 0 0 0 0 0 0 0 0 0 0 0 0 0 0 0 0 0 0 0 0 0 1 1 1 0 0 0 0 1 1 0 0 0 1 1
0 0 0 0 0 0 0 0 0 0 0 0 0 0 0 0 0 0 0 0 0 0 0 0 0 0 0 0 0 0 0 0 0 0 0 0 1 1 0 0 0 1 1
0 0 0 0 0 0 0 0 0 0 0 0 0 0 0 0 0 0 0 0 0 0 0 0 0 0 0 0 0 0 0 0 0 0 0 0 0 0 0 0 0 0 1
0 0 0 0 0 0 0 0 0 0 0 0 0 0 0 0 0 0 0 0 0 0 0 0 0 0 0 0 0 0 0 0 0 0 0 0 0 0 0 0 0 0 0
0 0 0 0 0 0 0 0 0 0 0 0 0 0 0 0 0 0 0 0 0 0 0 0 0 0 0 0 0 0 0 0 0 0 0 0 0 0 0 0 0 0 0
0 0 0 0 0 0 0 0 0 0 0 0 0 0 0 0 0 0 0 0 0 0 0 0 0 0 0 0 0 0 0 0 0 0 0 0 0 0 0 0 0 0 0
0 0 0 0 0 0 0 0 0 0 0 0 0 0 0 0 0 0 0 0 0 0 0 0 0 0 0 0 0 0 0 0 0 0 0 0 0 0 0 0 0 0 0
0 0 0 0 0 0 0 0 0 0 0 0 0 0 0 0 0 0 0 0 0 0 0 0 0 0 0 0 0 0 0 0 0 0 0 0 0 0 0 0 0 0 0
0 0 0 0 0 0 0 0 0 0 0 0 0 0 0 0 0 0 0 0 0 0 0 0 0 0 0 0 0 0 0 0 0 0 0 0 0 0 0 0 0 0 0
0 0 0 0 0 0 0 0 0 0 0 0 0 0 0 0 0 0 0 0 0 0 0 0 0 0 0 0 0 0 0 0 0 0 0 0 0 0 0 0 0 0 0
0 0 0 0 0 0 0 0 0 0 0 0 0 0 0 0 0 0 0 0 0 0 0 0 0 0 0 0 0 0 0 0 0 0 0 0 0 0 0 0 0 0 0
0 0 0 0 0 0 0 0 0 0 0 0 0 0 0 0 0 0 0 0 0 0 0 0 0 0 0 0 0 0 0 0 0 0 0 0 0 0 0 0 0 0 0
0 0 0 0 0 0 0 0 0 0 0 0 0 0 0 0 0 0 0 0 0 0 0 0 0 0 0 0 0 0 0 0 0 0 0 0 0 0 0 0 0 0 0
0 0 0 0 0 0 0 0 0 0 0 0 0 0 0 0 0 0 0 0 0 0 0 0 0 0 0 0 0 0 0 0 0 0 0 0 0 0 0 0 0 0 0
0 0 0 0 0 0 0 0 0 0 0 0 0 0 0 0 0 0 0 0 0 0 0 0 0 0 0 0 0 0 0 0 0 0 0 0 0 0 0 0 0 0 0
0 0 0 0 0 0 0 0 0 0 0 0 0 0 0 0 0 0 0 0 0 0 0 0 0 0 0 0 0 0 0 0 0 0 0 0 0 0 0 0 0 0 0
0 0 0 0 0 0 0 0 0 0 0 0 0 0 0 0 0 0 0 0 0 0 0 0 0 0 0 0 0 0 0 0 0 0 0 0 0 0 0 0 0 0 0
0 0 0 0 0 0 0 0 0 0 0 0 0 0 0 0 0 0 0 0 0 0 0 0 0 0 0 0 0 0 0 0 0 0 0 0 0 0 0 0 0 0 0
Wind_Speed
3 3 3 3 4 3 3 4 4 4 4 4 4 4 4 4 4 3 3 9 10 10 10 10 10 10 10 9 9 9 9 9 9 9 9 10 10 10 10 10 10 10 10
3 3 3 3 3 3 3 3 4 3 3 3 3 3 3 3 3 3 3 5 10 11 11 11 11 11 11 10 10 10 10 10 10 10 11 11 11 11 11 11 11 11 11
3 3 3 3 3 3 3 3 4 3 3 3 4 3 3 3 3 3 4 3 5 9 11 12 12 12 12 11 11 11 11 11 11 11 12 12 12 12 12 12 12 12 12
3 3 3 3 3 3 3 3 3 3 3 3 3 3 2 2 3 3 3 4 4 5 8 12 13 12 13 12 12 12 12 13 13 12 12 13 13 13 13 13 13 13 13
3 3 2 3 3 3 3 3 3 2 3 3 2 2 2 2 2 3 3 4 4 5 5 9 12 13 13 13 13 13 13 13 13 14 14 13 14 14 14 14 14 14 14
3 3 2 3 3 3 3 3 3 3 2 2 2 2 2 2 2 2 3 3 4 5 5 6 5 8 12 13 13 13 13 13 13 14 14 14 14 15 15 15 15 15 15
3 3 3 3 3 3 3 3 2 3 3 3 2 2 2 2 2 2 2 2 4 4 4 5 4 4 5 11 13 13 14 14 14 14 15 15 15 15 16 16 16 16 15
3 3 3 2 2 2 3 3 3 2 2 3 2 1 2 2 2 2 2 2 3 3 4 5 4 4 4 3 8 14 15 15 15 15 16 16 16 16 16 16 17 17 16
3 3 3 3 2 2 2 2 2 2 1 2 3 2 1 2 3 2 2 2 3 2 2 3 4 4 4 3 4 10 14 15 15 16 16 17 17 17 17 17 17 17 16
3 3 3 3 3 2 2 2 3 2 1 1 2 2 1 0 1 3 2 2 2 2 2 3 3 4 4 3 6 11 13 14 15 16 16 17 18 18 18 18 18 17 17
2 3 3 3 3 2 3 2 2 2 2 1 1 1 1 1 0 1 3 3 3 2 2 2 2 3 4 4 4 9 13 14 15 15 16 17 17 18 18 18 18 17 17
2 3 3 3 2 2 2 2 2 2 2 2 1 1 1 1 1 1 3 4 4 3 2 2 2 2 3 4 6 12 14 14 15 16 16 17 17 17 17 18 18 18 18
2 2 3 2 2 2 2 2 2 2 2 2 1 1 1 1 2 2 2 3 4 3 2 1 1 2 3 3 5 12 12 14 15 16 16 17 17 17 17 18 18 18 18
1 1 2 2 2 2 2 1 1 1 1 1 1 1 1 1 1 1 1 2 4 3 2 3 2 2 3 4 7 12 8 14 15 16 16 17 17 17 18 18 18 18 18
1 1 1 1 1 1 1 1 1 1 1 1 1 1 1 1 1 1 1 1 2 4 4 3 2 3 4 4 8 6 7 13 16 16 17 17 17 18 18 18 18 18 18
0 0 1 1 1 1 1 1 1 1 1 1 1 1 1 1 1 1 1 1 2 3 4 3 3 4 5 5 9 7 7 15 15 16 17 18 18 18 18 18 17 18 18
0 0 1 1 1 1 1 1 1 1 1 1 2 1 2 2 1 1 1 1 2 2 5 5 3 4 5 6 7 6 6 6 8 15 17 18 18 18 18 17 17 18 18
0 0 1 1 1 1 1 1 1 1 1 1 1 1 2 2 2 2 1 2 2 2 3 6 5 4 5 6 6 7 7 7 7 13 16 17 18 17 17 17 18 18 18
1 1 1 1 1 1 1 1 0 1 0 1 1 1 2 2 2 2 2 2 2 3 3 4 5 4 4 5 6 7 7 6 7 10 13 15 16 17 17 18 18 18 18
1 1 1 0 0 1 1 1 1 1 1 1 1 1 2 2 2 2 2 3 3 3 3 3 4 5 5 5 4 6 7 6 7 7 9 12 14 16 16 17 17 17 17
0 0 1 1 1 0 0 0 0 0 0 1 1 2 2 2 3 3 3 3 3 2 3 3 4 4 4 5 5 5 7 8 7 5 6 8 8 7 9 13 15 17 18
1 1 1 0 1 0 1 1 0 0 1 1 1 2 2 2 3 4 5 5 3 3 3 3 4 4 6 5 5 5 6 7 7 4 7 8 6 7 7 7 15 19 19
1 1 0 0 1 1 1 1 1 0 1 1 1 2 2 2 2 2 5 6 5 6 5 3 4 5 6 6 6 6 6 6 7 7 7 8 5 7 7 9 19 19 19
1 0 0 1 1 2 1 1 1 1 1 1 2 2 3 3 2 3 3 3 3 4 5 3 4 5 5 5 4 5 6 7 7 5 5 6 6 7 8 8 14 17 18
1 0 0 0 1 2 2 2 1 0 1 2 2 2 3 3 5 5 3 3 4 4 6 7 7 7 8 8 6 4 4 5 6 5 3 4 6 8 8 7 8 15 18
1 1 0 0 1 2 2 2 1 0 1 2 2 2 3 5 6 5 2 3 5 5 4 5 6 6 6 6 7 3 3 4 5 5 3 4 5 7 8 5 6 7 10
Wind_Direction
34 26 27 27 22 17 16 11 12 18 21 24 30 39 34 36 39 30 15 25 28 24 22 17 14 12 8 9 12 10 8 8 5 1 354 347 339 335 334 332 330 327 324
43 31 23 22 17 10 7 10 6 11 18 26 27 29 34 34 37 29 19 19 25 23 20 18 12 7 5 1 2 2 2 5 7 5 1 355 346 338 331 328 325 321 317
44 37 29 20 8 4 6 11 8 19 29 28 24 19 25 32 34 29 22 20 16 21 20 17 12 9 5 2 3 3 2 2 2 1 359 357 348 339 336 333 328 323 319
42 44 32 19 5 9 13 13 14 22 23 20 13 13 12 22 32 37 36 30 23 17 14 21 17 15 14 12 9 7 5 3 2 359 354 353 349 343 339 336 331 327 323
39 44 36 19 14 20 18 14 19 24 19 12 6 12 9 21 31 42 45 39 29 25 19 20 19 15 15 13 11 9 8 5 3 359 355 351 346 341 338 335 332 328 324
34 38 42 25 19 26 23 19 19 17 19 1 3 7 6 19 41 41 43 40 30 27 22 19 15 7 12 11 8 5 3 1 359 355 352 348 344 338 335 331 328 325 322
30 34 32 29 25 31 20 26 26 26 21 7 15 5 6 26 47 41 34 41 30 22 20 19 17 10 360 4 2 1 358 356 354 352 347 343 340 337 334 329 325 322 320
30 28 31 32 23 25 27 32 34 31 20 12 9 1 344 351 17 21 23 35 24 16 14 14 16 15 3 356 354 357 354 352 350 348 345 341 337 333 331 329 327 323 320
40 31 26 29 24 29 32 28 29 44 29 11 21 31 26 312 322 343 6 19 10 8 355 357 9 5 359 356 345 349 350 349 346 343 340 339 337 333 330 327 325 327 326
37 39 32 27 26 30 40 27 36 27 46 19 10 19 39 148 308 316 322 352 351 347 343 351 353 350 351 353 344 346 347 345 343 340 338 335 333 330 330 328 326 325 323
28 33 38 32 29 33 39 40 39 40 45 44 18 352 358 358 234 258 292 316 324 323 331 321 330 341 346 348 335 338 343 341 340 337 335 332 331 329 327 325 323 322 321
25 32 33 33 32 32 33 37 47 54 53 57 40 17 356 322 306 280 279 299 305 306 312 302 324 337 338 342 334 339 340 340 337 335 333 331 329 327 324 323 321 320 319
13 20 28 31 30 27 27 37 55 53 57 58 35 8 341 298 291 280 277 294 297 300 300 310 323 334 339 338 329 339 338 337 334 331 330 329 328 325 323 321 319 318 317
344 18 32 34 22 21 28 40 54 47 57 53 31 20 353 333 329 308 293 299 305 302 296 300 316 328 338 333 329 340 333 333 331 329 329 328 326 323 320 318 317 316 316
1 26 46 43 22 22 29 41 48 37 45 40 26 14 0 340 341 324 304 294 283 294 297 303 317 330 334 329 332 333 327 325 328 328 326 325 323 321 320 318 317 316 316
1 18 38 38 31 30 34 50 48 36 48 28 21 20 351 337 338 332 326 307 275 266 279 295 303 316 323 324 326 328 319 324 324 324 323 323 322 321 320 319 319 318 317
66 39 57 52 38 32 32 56 43 40 41 17 7 2 340 333 327 321 321 307 296 275 276 295 298 309 311 317 321 320 318 316 316 320 321 322 323 322 322 322 320 319 318
60 79 88 74 46 29 35 51 20 28 32 357 337 336 324 328 320 313 315 310 301 285 278 294 306 313 313 318 319 321 324 322 316 317 321 324 324 324 325 323 322 321 320
68 67 85 82 48 28 32 21 349 354 337 312 318 313 306 314 315 316 316 309 303 296 288 289 304 312 312 319 322 319 318 317 318 321 323 325 326 327 325 323 323 322 319
87 69 60 69 58 35 35 358 5 3 355 344 329 311 306 304 305 310 312 305 299 300 306 305 305 309 310 313 320 322 322 325 321 320 323 325 325 324 321 320 321 319 318
68 69 60 46 41 51 28 11 7 2 329 323 320 311 315 315 317 317 312 295 291 304 314 308 307 310 316 325 326 322 317 319 312 314 322 319 318 314 316 317 319 317 318
71 86 70 23 356 310 276 273 296 297 286 295 308 319 315 317 326 325 316 319 319 314 308 308 306 308 313 316 316 316 315 320 318 330 327 311 313 309 311 308 314 319 319
100 92 86 18 320 299 290 302 318 4 340 322 313 310 311 317 307 315 324 331 332 326 314 299 294 296 302 307 310 308 308 306 296 308 317 300 308 303 307 310 315 317 319
120 122 56 11 339 336 332 323 348 38 358 320 316 307 299 305 306 322 323 325 324 322 313 303 282 289 294 302 300 298 301 300 293 296 313 297 309 307 309 305 309 317 324
136 129 71 20 308 319 324 320 329 353 321 318 314 311 300 300 313 323 326 316 316 315 317 312 306 312 319 324 325 326 323 318 309 308 320 300 307 312 304 296 304 317 322
173 161 160 341 282 295 305 301 288 278 291 300 306 309 310 311 318 321 313 306 306 309 324 326 326 326 326 324 327 324 297 298 302 302 317 318 306 324 311 296 307 312 315